{"data":{"norad_id":61552,"epoch":"2026-09-22T20:03:51.175008Z","epoch_age_seconds":95549,"freshness":"FRESH","line1":"1 61552U 24185A   26265.83600897  .00000286  00000+0  14190-3 0  9994","line2":"2 61552  88.9861  45.3945 0008915 108.3893 251.8264 14.14533161109823","mean_motion":14.14533161,"eccentricity":0.0008915,"inclination_deg":88.9861,"raan_deg":45.3945,"arg_perigee_deg":108.3893,"mean_anomaly_deg":251.8264,"bstar":0.0001419,"rev_number":10982,"period_min":101.80037058884,"perigee_km":837.4622768536,"apogee_km":850.33917011457,"semimajor_km":7222.0377234841,"source":"CELESTRAK","updated_at":"2026-09-23T09:00:20.902720Z"}}